Tracking 25709 objects as of 23-May-2022
HD Live streaming from Space Station
objects crossing your sky now

CRYOCUBE

Track CRYOCUBE now!
10-day predictions
CRYOCUBE is classified as:


NORAD ID: 45258
Int'l Code: 1998-067RB
Perigee: 288.2 km
Apogee: 295.3 km
Inclination: 51.6 °
Period: 90.2 minutes
Semi major axis: 6662 km
RCS: Unknown
Launch date: November 20, 1998
Source: United States (US)
Launch site: TYURATAM MISSILE AND SPACE COMPLEX (TTMTR)

Uplink (MHz):
Downlink (MHz): 437.350/2402.500
Beacon (MHz):
Mode: 9600bps GMSK
Call sign: WJ2XOY
Status: Inactive

aabbcc
Your satellite tracking list
Your tracking list is empty




NASA's NSSDC Master Catalog

Two Line Element Set (TLE):
1 45258U 98067RB  22143.02872724  .00460243  97767-4  10788-2 0  9993
2 45258  51.6296  46.8723 0005335 161.8666 198.2534 15.96344769128406
Source of the keplerian elements: AFSPC